Preview of NWS' New Version of Forecast
This preview is not operational and should not be used for support decisions.

Regional Weather Roundup (RWR)

Issued by National Weather Service (NWS)

                            
000
ASUS45 KABQ 171901
RWRNM 
NEW MEXICO REGIONAL WEATHER ROUNDUP
NATIONAL WEATHER SERVICE ALBUQUERQUE NM
100 PM MDT SAT AUG 17 2019

NOTE: "FAIR" MEANS FEW OR NO CLOUDS BELOW 12,000 FEET AGL WITH NO
       SIGNIFICANT WEATHER OR OBSTRUCTIONS TO VISION.

      THIS PRODUCT IS RELEASED AS TWO VERSIONS.  ONE VERSION NEAR
      THE TOP OF THE HOUR CONTAINING PRELIMINARY DATA FROM ALBUQUERQUE
      AND OTHER STATIONS.  A FINAL VERSION WITH ADDITIONAL DATA IS 
      ISSUED ABOUT 10 MINUTES AFTER THE HOUR.
 
NMZ501-503-504-510>518-172000-
NORTHWEST PLATEAU/NORTHCENTRAL MOUNTAINS
  
CITY           SKY/WX    TMP DP  RH WIND       PRES   REMARKS
FARMINGTON     FAIR      90  27  10 SW12      30.06F                  
LOS ALAMOS       N/A     79  31  17 SE5       30.21F                  
SANTA FE       FAIR      85  34  16 S5        30.14F                  
TAOS             N/A     84  31  14 SW14G22   30.18F                  
ANGEL FIRE     FAIR      73  35  25 W10G18    30.30S                  

$$
NMZ402-403-502-505>509-172000-
WESTCENTRAL MOUNTAINS/SOUTHWEST MOUNTAINS
  
CITY           SKY/WX    TMP DP  RH WIND       PRES   REMARKS
GALLUP         FAIR      84  29  13 S9G22     30.18F                  
GRANTS         FAIR      83  29  14 SW3G17    30.20F                  
SILVER CITY    FAIR      87  46  23 NW14G21   30.14F                  

$$
NMZ407-409-411-412-172000-
SOUTHERN DESERTS
  
CITY           SKY/WX    TMP DP  RH WIND       PRES   REMARKS
DEMING         FAIR      94  43  17 W13G20    30.03F                  
LAS CRUCES     FAIR      96  32  10 N3        30.04F                  
HOLLOMAN AFB   FAIR      95  45  17 NW10      30.00F                  
ALAMOGORDO     FAIR      95  39  14 NW9G21    30.00F                  
T OR C         FAIR      94  34  12 VRB3      30.05F                  

$$
NMZ519>523-172000-
CENTRAL VALLEYS/CENTRAL HIGHLANDS
  
CITY           SKY/WX    TMP DP  RH WIND       PRES   REMARKS
ALBUQUERQUE    FAIR      88  36  15 VRB6      30.08F                  
DOUBLE EAGLE   MOSUNNY   88  39  18 S10       30.11F                  
CLINES CORNERS FAIR      85  32  15 NW14G23   30.20F                  
BELEN          FAIR      91  35  13 NW6       30.08F                  
SOCORRO        FAIR      94  36  13 NE7       30.04F                  

$$
NMZ524>526-539-540-172000-
SOUTHCENTRAL MOUNTAINS
  
CITY           SKY/WX    TMP DP  RH WIND       PRES   REMARKS
RUIDOSO        FAIR      84  39  20 N14G20    30.21F                  

$$
NMZ527>531-172000-
NORTHEAST HIGHLANDS/NORTHEAST PLAINS
  
CITY           SKY/WX    TMP DP  RH WIND       PRES   REMARKS
LAS VEGAS      FAIR      82  28  14 W10G23    30.15F                  
RATON          FAIR      86  31  13 W15       30.05F                  
CLAYTON        FAIR      95  28   9 VRB6G17   29.95F                  

$$
NMZ532>537-172000-
EASTCENTRAL PLAINS
  
CITY           SKY/WX    TMP DP  RH WIND       PRES   REMARKS
TUCUMCARI      FAIR      97  47  18 VRB6      29.89F                  
CANNON AFB     CLOUDY    93  43  17 W9        29.96F                  
CLOVIS AIRPORT FAIR      96  46  18 SW5       29.95F                  

$$
NMZ028-029-538-172000-
SOUTHEAST PLAINS
  
CITY           SKY/WX    TMP DP  RH WIND       PRES   REMARKS
ROSWELL        FAIR     101  43  13 CALM      29.90F HX  96           
ARTESIA        FAIR      99  41  13 NE12      29.92F                  
CARLSBAD       FAIR     100  47  16 N8        29.88F HX  96           
HOBBS          SUNNY     99  46  16 S8        29.92F HX  95           


$$